MPEC 2004-L27 : 2004 LV

The following Minor Planet Electronic Circular may be linked-to from your own Web pages, but must not otherwise be redistributed electronically.


Read MPEC 2004-L26 Read MPEC 2004-L28


M.P.E.C. 2004-L27                                Issued 2004 June 10, 23:27 UT

     The Minor Planet Electronic Circulars contain information on unusual
         minor planets and routine data on comets.  They are published
   on behalf of Commission 20 of the International Astronomical Union by the
          Minor Planet Center, Smithsonian Astrophysical Observatory,
                          Cambridge, MA 02138, U.S.A.

         Supported in part by the Steven and Michele Kirsch Foundation
             Prepared using the Tamkin Foundation Computer Network

                              MPC@CFA.HARVARD.EDU
          URL http://cfa-www.harvard.edu/iau/mpc.html  ISSN 1523-6714

                                    2004 LV

Observations:
     K04L00V* C2004 06 09.23658 15 56 33.36 +21 57 35.9          19.3   EL027704
     K04L00V  C2004 06 09.24658 15 56 21.12 +22 03 46.1          18.9   EL027704
     K04L00V  C2004 06 09.25667 15 56 08.67 +22 10 01.3          19.2   EL027704
     K04L00V  C2004 06 09.26667 15 55 56.26 +22 16 13.3          18.8   EL027704
     K04L00V  C2004 06 10.33451 15 28 19.12 +35 14 38.8          19.0   EL027704
     K04L00V  C2004 06 10.34400 15 27 58.80 +35 22 29.6          19.1   EL027704
     K04L00V  C2004 06 10.35348 15 27 38.42 +35 30 19.4          19.4   EL027704
     K04L00V  C2004 06 10.93031 15 03 47.04 +43 58 34.7          19.3 R EL027620
     K04L00V  C2004 06 10.93428 15 03 34.67 +44 02 11.1          19.2 R EL027620
     K04L00V  C2004 06 10.94484 15 03 01.58 +44 11 48.4          18.9 R EL027620
     K04L00V  C2004 06 10.95001 15 02 45.19 +44 16 29.4          18.9 R EL027620

Observer details:
620 Observatorio Astronomico de Mallorca.  Observers S. Sanchez, R. Stoss,
    J. Nomen.  0.30-m f/9 Schmidt-Cassegrain + CCD.
704 Lincoln Laboratory ETS, New Mexico.  Observers M. Blythe, F. Shelly,
    M. Bezpalko, R. Huber, L. Manguso, D. Torres, R. Kracke, M. McCleary,
    H. Stange, A. Milner.  Measurers J. Stuart, R. Sayer, J. Evans, J. Kommers.
    1.0-m f/2.15 reflector + CCD.

Orbital elements:
2004 LV
Epoch 2004 July 14.0 TT = JDT 2453200.5                 MPC
M 351.30687              (2000.0)            P               Q
n   0.46031771     Peri.  132.69336     +0.98456904     +0.17329328
a   1.6612344      Node   217.34658     -0.16999547     +0.91408504
e   0.6219095      Incl.    2.30108     -0.04153740     +0.36663057
P   2.14           H   24.2           G   0.15           U   8
Residuals in seconds of arc
040609 704  0.0   0.2+    040610 704  0.7+  0.2-    040610 620  0.2-  0.0
040609 704  0.3+  0.3-    040610 704  0.3+  0.4+    040610 620  0.8+  0.1+
040609 704  0.0   0.0     040610 704  0.2-  0.2-    040610 620  0.1+  1.4-
040609 704  0.5-  0.4-    040610 620  0.7-  0.6+

Ephemeris:
2004 LV                  a,e,i = 1.66, 0.62, 2                   q = 0.6281
Date    TT    R. A. (2000) Decl.     Delta      r     Elong.  Phase     V
2004 06 04    16 40.64   -04 51.7    0.088    1.098   162.3    16.3    20.0
2004 06 05    16 36.52   -02 13.9    0.078    1.088   159.3    19.3    19.8
2004 06 06    16 31.25   +01 07.9    0.068    1.077   155.4    23.1    19.6
2004 06 07    16 24.30   +05 32.5    0.059    1.067   150.3    28.1    19.4
2004 06 08    16 14.74   +11 28.5    0.051    1.056   143.5    34.9    19.3
2004 06 09    16 00.82   +19 37.4    0.043    1.046   134.2    44.1    19.2
2004 06 10    15 38.89   +30 46.2    0.037    1.035   121.6    56.7    19.1
2004 06 11    15 00.32   +45 01.4    0.033    1.024   105.0    73.2    19.4
2004 06 12    13 43.11   +59 46.5    0.032    1.014    85.8    92.4    20.0
2004 06 13    11 15.40   +68 10.5    0.034    1.003    67.5   110.7    21.1
2004 06 14    08 46.45   +66 13.1    0.039    0.993    52.8   125.4    22.4

Kyle E. Smalley              (C) Copyright 2004 MPC           M.P.E.C. 2004-L27

Read MPEC 2004-L26 Read MPEC 2004-L28


Our Web policy. Index to the CBAT/MPC/ICQ pages.

MPC